Miscellaneous Local Product
Issued by NWS Hastings, NE

Home | Current Version | Previous Version | Graphics & Text | Print | Product List | Glossary On
Versions: 1 2 3 4 5 6 7 8 9 10 11 12 13 14 15 16 17 18 19 20 21 22 23 24 25 26 27 28 29 30 31 32 33 34 35 36 37 38 39 40 41 42 43 44 45 46 47 48 49 50
354
AXUS43 KGID 291102
MISGRI

GID CWA HOURLY WEATHER ROUNDUP
NATIONAL WEATHER SERVICE HASTINGS NE
600 AM CDT SUN MAY 29 2016

NOTE: "FAIR" INDICATES FEW OR NO CLOUDS BELOW 12,000 FEET WITH NO
SIGNIFICANT WEATHER AND/OR OBSTRUCTIONS TO VISIBILITY.

...SOUTH CENTRAL NEBRASKA...

CITY           SKY/WX    TMP DP  RH WIND       PRES   REMARKS
GRAND ISLAND   CLEAR     55  54  96 W5        30.06R FOG
HASTINGS       PTCLDY    54  52  93 CALM      30.06R
KEARNEY        CLEAR     54  48  82 E5        30.08R
ORD            CLEAR     53  52  96 CALM      30.04R
YORK           PTCLDY    55  54  94 CALM      30.05R
AURORA         PTCLDY    56  55  99 CALM      30.05R
LEXINGTON      CLEAR     51  49  92 NW7       30.08R
HOLDREGE       CLEAR     55  51  86 CALM      30.06R
HEBRON         CLEAR     57  54  89 CALM      30.04R

...NEBRASKA PANHANDLE...

CITY           SKY/WX    TMP DP  RH WIND       PRES   REMARKS
CHADRON        CLEAR     37  35  92 CALM      30.08R
ALLIANCE       MOCLDY    39  38  96 CALM      30.09R FOG
SCOTTSBLUFF    CLEAR     45  43  93 W6        30.09R
SIDNEY         CLEAR     42  40  92 SW7       30.11S

...WESTERN AND NORTH CENTRAL NEBRASKA...

CITY           SKY/WX    TMP DP  RH WIND       PRES   REMARKS
VALENTINE      CLEAR     49  47  93 SW6       30.07R
AINSWORTH      CLEAR     52  50  92 W5        30.07R
ONEILL         CLOUDY    58  57  95 W5        30.03R
BROKEN BOW     CLEAR     53  50  89 CALM      30.06R
IMPERIAL       CLEAR     51  48  89 CALM      30.10R
NORTH PLATTE   CLEAR     46  46 100 CALM      30.09R
MCCOOK         CLEAR     53  48  83 CALM      30.07R

...EASTERN NEBRASKA...

CITY           SKY/WX    TMP DP  RH WIND       PRES   REMARKS
NORFOLK        CLOUDY    55  53  93 CALM      30.02R
SO SIOUX CITY  CLOUDY    58  55  90 CALM      30.01R
TEKAMAH        PTCLDY    54  52  93 S6        30.03R
COLUMBUS       CLOUDY    54  48  82 CALM      30.05R
ALBION         CLEAR     53  51  91 CALM      30.05R
OMAHA EPPLEY   PTCLDY    56  53  90 E3        30.03R
OFFUTT AFB     PTCLDY    53  53 100 NW1       30.03R
MILLARD        CLEAR     55  54  95 CALM      30.03R
LINCOLN        CLEAR     56  54  93 S3        30.04R
NEBRASKA CITY  CLEAR     58  58 100 CALM      30.04R
BEATRICE       PTCLDY    58  56  94 CALM      30.04R
FALLS CITY     CLEAR     58  57  97 CALM      30.04R

...NORTHERN KANSAS...

CITY           SKY/WX    TMP DP  RH WIND       PRES   REMARKS
GOODLAND       CLEAR     50  46  86 CALM      30.11R
HILL CITY      PTCLDY    54  51  90 CALM      30.08R
NORTON         SUNNY     57  46  67 CALM      30.07R
PHILLIPSBURG   CLEAR     55  55 100 S3        30.06S
SMITH CENTER   CLEAR     54  54 100 SE6       30.07R
BELOIT         CLEAR     55  54  94 S3        30.05R
HAYS           CLEAR     55  46  71 W6        30.09R
RUSSELL        CLEAR     57  54  89 SW5       30.07R
CONCORDIA      CLEAR     60  53  77 CALM      30.06R
SALINA         CLEAR     57  55  93 S9        30.06R
TOPEKA         CLEAR     61  57  87 S6        30.05R



USA.gov is the U.S. government's official web portal to all federal, state and local government web resources and services.